Location: *
(50.8667°S, 179.2667°W)
Time: 07:00:34
(UTC+00:00)

Cosmos 1766 Rocket - Pass Details

Date: 02 October 2023
Orbit: 602 x 630 km, 82.5° (Epoch: 10 December)

Event Time Altitude Azimuth Distance (km) Brightness Sun altitude
Exits shadow 15:32:06 - 3° (N) 2,205 6.1 -17.4°
Reaches altitude 10° 15:32:33 10° 4° (N) 2,026 5.9 -17.3°
Maximum altitude 15:37:00 62° 84° (E) 724 4.1 -16.7°
Drops below altitude 10° 15:41:30 10° 164° (SSE) 2,047 6.8 -16.1°
Sets 15:43:46 0° 167° (SSE) 2,960 7.7 -15.8°
